Location: Cold Norton
(51.6667°N, 0.6667°E)
Time: 00:52:58
(UTC+00:00)

Meteor 2-3 Rocket - Pass Details

Date: 18 November 2025
Orbit: 841 x 884 km, 81.2° (Epoch: 13 December)

Event Time Altitude Azimuth Distance (km) Brightness Sun altitude
Rises 18:28:22 0° 347° (NNW) 3,470 7.0 -22.1°
Reaches altitude 10° 18:30:49 10° 348° (NNW) 2,522 6.3 -22.5°
Maximum altitude 18:36:34 86° 77° (ENE) 869 3.6 -23.4°
Drops below altitude 10° 18:42:12 10° 167° (SSE) 2,475 6.0 -24.3°
Sets 18:44:36 0° 168° (SSE) 3,401 6.7 -24.6°
